Terug naar catalogus

COSMOS 2251 DEB

ActiefLEO
NORAD 37292·DEBRIS·🇷🇺 Russia

Gelanceerd Jun 16, 1993 vanaf Plesetsk Cosmodrome

Loading…

Volgende Passages (komende 24 uur)

TLE

VerouderendSource: Space-Track

Epoch: Sep 10, 2026, 11:39 UTC

1 37292U 93036BJG 26253.48550666  .00001197  00000-0  62578-3 0  9991
2 37292  74.1256 298.4177 0208171 233.5374 124.6422 14.04925894636635

Volg COSMOS 2251 DEB in realtime met AllMySat

Download on the App Store